Year,Month,Day,Hour,Minute,Value (Times are PST for temperature in C)
2015,03,25,00,00,7.60
2015,03,25,00,01,7.60
2015,03,25,00,02,7.60
2015,03,25,00,03,7.60
2015,03,25,00,04,7.60
2015,03,25,00,05,7.50
2015,03,25,00,06,7.50
2015,03,25,00,07,7.50
2015,03,25,00,08,7.50
2015,03,25,00,09,7.50
2015,03,25,00,10,7.50
2015,03,25,00,11,7.50
2015,03,25,00,12,7.50
2015,03,25,00,13,7.50
2015,03,25,00,14,7.50
2015,03,25,00,15,7.50
2015,03,25,00,16,7.50
2015,03,25,00,17,7.50
2015,03,25,00,18,7.50
2015,03,25,00,19,7.50
2015,03,25,00,20,7.50
2015,03,25,00,21,7.50
2015,03,25,00,22,7.50
2015,03,25,00,23,7.50
2015,03,25,00,24,7.50
2015,03,25,00,25,7.50
2015,03,25,00,26,7.50
2015,03,25,00,27,7.50
2015,03,25,00,28,7.50
2015,03,25,00,29,7.50
2015,03,25,00,30,7.50
2015,03,25,00,31,7.50
2015,03,25,00,32,7.50
2015,03,25,00,33,7.50
2015,03,25,00,34,7.50
2015,03,25,00,35,7.50
2015,03,25,00,36,7.50
2015,03,25,00,37,7.50
2015,03,25,00,38,7.40
2015,03,25,00,39,7.40
2015,03,25,00,40,7.40
2015,03,25,00,41,7.40
2015,03,25,00,42,7.40
2015,03,25,00,43,7.40
2015,03,25,00,44,7.40
2015,03,25,00,45,7.40
2015,03,25,00,46,7.40
2015,03,25,00,47,7.40
2015,03,25,00,48,7.40
2015,03,25,00,49,7.40
2015,03,25,00,50,7.40
2015,03,25,00,51,7.40
2015,03,25,00,52,7.40
2015,03,25,00,53,7.40
2015,03,25,00,54,7.40
2015,03,25,00,55,7.40
2015,03,25,00,56,7.40
2015,03,25,00,57,7.40
2015,03,25,00,58,7.40
2015,03,25,00,59,7.40
2015,03,25,01,00,7.40
2015,03,25,01,01,7.40
2015,03,25,01,02,7.40
2015,03,25,01,03,7.40
2015,03,25,01,04,7.40
2015,03,25,01,05,7.40
2015,03,25,01,06,7.40
2015,03,25,01,07,7.40
2015,03,25,01,08,7.40
2015,03,25,01,09,7.40
2015,03,25,01,10,7.40
2015,03,25,01,11,7.40
2015,03,25,01,12,7.40
2015,03,25,01,13,7.40
2015,03,25,01,14,7.40
2015,03,25,01,15,7.40
2015,03,25,01,16,7.40
2015,03,25,01,17,7.40
2015,03,25,01,18,7.40
2015,03,25,01,19,7.40
2015,03,25,01,20,7.40
2015,03,25,01,21,7.40
2015,03,25,01,22,7.40
2015,03,25,01,23,7.40
2015,03,25,01,24,7.40
2015,03,25,01,25,7.40
2015,03,25,01,26,7.40
2015,03,25,01,27,7.40
2015,03,25,01,28,7.40
2015,03,25,01,29,7.40
2015,03,25,01,30,7.40
2015,03,25,01,31,7.40
2015,03,25,01,32,7.40
2015,03,25,01,33,7.40
2015,03,25,01,34,7.40
2015,03,25,01,35,7.40
2015,03,25,01,36,7.40
2015,03,25,01,37,7.40
2015,03,25,01,38,7.40
2015,03,25,01,39,7.40
2015,03,25,01,40,7.40
2015,03,25,01,41,7.40
2015,03,25,01,42,7.40
2015,03,25,01,43,7.40
2015,03,25,01,44,7.40
2015,03,25,01,45,7.40
2015,03,25,01,46,7.40
2015,03,25,01,47,7.40
2015,03,25,01,48,7.40
2015,03,25,01,49,7.40
2015,03,25,01,50,7.40
2015,03,25,01,51,7.40
2015,03,25,01,52,7.40
2015,03,25,01,53,7.50
2015,03,25,01,54,7.40
2015,03,25,01,55,7.50
2015,03,25,01,56,7.50
2015,03,25,01,57,7.50
2015,03,25,01,58,7.50
2015,03,25,01,59,7.50
2015,03,25,02,00,7.50
2015,03,25,02,01,7.60
2015,03,25,02,02,7.60
2015,03,25,02,03,7.60
2015,03,25,02,04,7.60
2015,03,25,02,05,7.60
2015,03,25,02,06,7.60
2015,03,25,02,07,7.60
2015,03,25,02,08,7.60
2015,03,25,02,09,7.60
2015,03,25,02,10,7.60
2015,03,25,02,11,7.60
2015,03,25,02,12,7.60
2015,03,25,02,13,7.70
2015,03,25,02,14,7.70
2015,03,25,02,15,7.70
2015,03,25,02,16,7.70
2015,03,25,02,17,7.70
2015,03,25,02,18,7.70
2015,03,25,02,19,7.70
2015,03,25,02,20,7.70
2015,03,25,02,21,7.70
2015,03,25,02,22,7.70
2015,03,25,02,23,7.80
2015,03,25,02,24,7.80
2015,03,25,02,25,7.80
2015,03,25,02,26,7.80
2015,03,25,02,27,7.80
2015,03,25,02,28,7.80
2015,03,25,02,29,7.90
2015,03,25,02,30,7.90
2015,03,25,02,31,7.90
2015,03,25,02,32,7.90
2015,03,25,02,33,7.90
2015,03,25,02,34,7.90
2015,03,25,02,35,7.90
2015,03,25,02,36,7.90
2015,03,25,02,37,7.90
2015,03,25,02,38,7.90
2015,03,25,02,39,7.90
2015,03,25,02,40,7.90
2015,03,25,02,41,7.90
2015,03,25,02,42,8.00
2015,03,25,02,43,8.00
2015,03,25,02,44,8.00
2015,03,25,02,45,8.00
2015,03,25,02,46,8.00
2015,03,25,02,47,8.00
2015,03,25,02,48,8.00
2015,03,25,02,49,8.00
2015,03,25,02,50,8.00
2015,03,25,02,51,8.00
2015,03,25,02,52,8.00
2015,03,25,02,53,8.00
2015,03,25,02,54,8.00
2015,03,25,02,55,8.00
2015,03,25,02,56,8.00
2015,03,25,02,57,8.00
2015,03,25,02,58,8.00
2015,03,25,02,59,7.90
2015,03,25,03,00,7.90
2015,03,25,03,01,7.90
2015,03,25,03,02,7.90
2015,03,25,03,03,7.90
2015,03,25,03,04,7.90
2015,03,25,03,05,7.90
2015,03,25,03,06,7.90
2015,03,25,03,07,7.90
2015,03,25,03,08,7.90
2015,03,25,03,09,7.90
2015,03,25,03,10,7.90
2015,03,25,03,11,7.90
2015,03,25,03,12,7.90
2015,03,25,03,13,7.90
2015,03,25,03,14,7.90
2015,03,25,03,15,7.90
2015,03,25,03,16,7.90
2015,03,25,03,17,7.90
2015,03,25,03,18,7.90
2015,03,25,03,19,7.90
2015,03,25,03,20,7.90
2015,03,25,03,21,7.90
2015,03,25,03,22,7.90
2015,03,25,03,23,7.90
2015,03,25,03,24,7.90
2015,03,25,03,25,7.90
2015,03,25,03,26,7.90
2015,03,25,03,27,7.90
2015,03,25,03,28,7.90
2015,03,25,03,29,7.90
2015,03,25,03,30,7.90
2015,03,25,03,31,7.90
2015,03,25,03,32,7.90
2015,03,25,03,33,7.90
2015,03,25,03,34,7.90
2015,03,25,03,35,7.90
2015,03,25,03,36,7.90
2015,03,25,03,37,7.80
2015,03,25,03,38,7.80
2015,03,25,03,39,7.80
2015,03,25,03,40,7.80
2015,03,25,03,41,7.80
2015,03,25,03,42,7.80
2015,03,25,03,43,7.80
2015,03,25,03,44,7.80
2015,03,25,03,45,7.80
2015,03,25,03,46,7.80
2015,03,25,03,47,7.80
2015,03,25,03,48,7.80
2015,03,25,03,49,7.80
2015,03,25,03,50,7.80
2015,03,25,03,51,7.80
2015,03,25,03,52,7.80
2015,03,25,03,53,7.80
2015,03,25,03,54,7.80
2015,03,25,03,55,7.80
2015,03,25,03,56,7.80
2015,03,25,03,57,7.80
2015,03,25,03,58,7.80
2015,03,25,03,59,7.80
2015,03,25,04,00,7.80
2015,03,25,04,01,7.80
2015,03,25,04,02,7.80
2015,03,25,04,03,7.80
2015,03,25,04,04,7.80
2015,03,25,04,05,7.80
2015,03,25,04,06,7.80
2015,03,25,04,07,7.80
2015,03,25,04,08,7.80
2015,03,25,04,09,7.80
2015,03,25,04,10,7.90
2015,03,25,04,11,7.90
2015,03,25,04,12,7.90
2015,03,25,04,13,7.90
2015,03,25,04,14,7.90
2015,03,25,04,15,7.90
2015,03,25,04,16,7.90
2015,03,25,04,17,7.90
2015,03,25,04,18,7.90
2015,03,25,04,19,7.90
2015,03,25,04,20,7.90
2015,03,25,04,21,7.90
2015,03,25,04,22,7.90
2015,03,25,04,23,7.90
2015,03,25,04,24,7.90
2015,03,25,04,25,7.90
2015,03,25,04,26,7.90
2015,03,25,04,27,7.90
2015,03,25,04,28,7.90
2015,03,25,04,29,7.90
2015,03,25,04,30,7.90
2015,03,25,04,31,7.90
2015,03,25,04,32,7.90
2015,03,25,04,33,7.80
2015,03,25,04,34,7.80
2015,03,25,04,35,7.80
2015,03,25,04,36,7.80
2015,03,25,04,37,7.80
2015,03,25,04,38,7.80
2015,03,25,04,39,7.80
2015,03,25,04,40,7.80
2015,03,25,04,41,7.80
2015,03,25,04,42,7.80
2015,03,25,04,43,7.80
2015,03,25,04,44,7.80
2015,03,25,04,45,7.80
2015,03,25,04,46,7.80
2015,03,25,04,47,7.80
2015,03,25,04,48,7.80
2015,03,25,04,49,7.80
2015,03,25,04,50,7.80
2015,03,25,04,51,7.80
2015,03,25,04,52,7.80
2015,03,25,04,53,7.80
2015,03,25,04,54,7.80
2015,03,25,04,55,7.70
2015,03,25,04,56,7.70
2015,03,25,04,57,7.70
2015,03,25,04,58,7.70
2015,03,25,04,59,7.70
2015,03,25,05,00,7.70
2015,03,25,05,01,7.70
2015,03,25,05,02,7.70
2015,03,25,05,03,7.70
2015,03,25,05,04,7.70
2015,03,25,05,05,7.70
2015,03,25,05,06,7.70
2015,03,25,05,07,7.70
2015,03,25,05,08,7.70
2015,03,25,05,09,7.70
2015,03,25,05,10,7.70
2015,03,25,05,11,7.70
2015,03,25,05,12,7.60
2015,03,25,05,13,7.60
2015,03,25,05,14,7.60
2015,03,25,05,15,7.60
2015,03,25,05,16,7.60
2015,03,25,05,17,7.60
2015,03,25,05,18,7.60
2015,03,25,05,19,7.60
2015,03,25,05,20,7.60
2015,03,25,05,21,7.60
2015,03,25,05,22,7.60
2015,03,25,05,23,7.60
2015,03,25,05,24,7.60
2015,03,25,05,25,7.60
2015,03,25,05,26,7.60
2015,03,25,05,27,7.60
2015,03,25,05,28,7.60
2015,03,25,05,29,7.60
2015,03,25,05,30,7.60
2015,03,25,05,31,7.60
2015,03,25,05,32,7.60
2015,03,25,05,33,7.60
2015,03,25,05,34,7.60
2015,03,25,05,35,7.60
2015,03,25,05,36,7.60
2015,03,25,05,37,7.60
2015,03,25,05,38,7.60
2015,03,25,05,39,7.60
2015,03,25,05,40,7.60
2015,03,25,05,41,7.60
2015,03,25,05,42,7.60
2015,03,25,05,43,7.60
2015,03,25,05,44,7.60
2015,03,25,05,45,7.60
2015,03,25,05,46,7.60
2015,03,25,05,47,7.60
2015,03,25,05,48,7.60
2015,03,25,05,49,7.60
2015,03,25,05,50,7.60
2015,03,25,05,51,7.60
2015,03,25,05,52,7.60
2015,03,25,05,53,7.60
2015,03,25,05,54,7.60
2015,03,25,05,55,7.60
2015,03,25,05,56,7.60
2015,03,25,05,57,7.60
2015,03,25,05,58,7.60
2015,03,25,05,59,7.60
2015,03,25,06,00,7.60
2015,03,25,06,01,7.70
2015,03,25,06,02,7.70
2015,03,25,06,03,7.70
2015,03,25,06,04,7.70
2015,03,25,06,05,7.70
2015,03,25,06,06,7.60
2015,03,25,06,07,7.60
2015,03,25,06,08,7.60
2015,03,25,06,09,7.60
2015,03,25,06,10,7.60
2015,03,25,06,11,7.60
2015,03,25,06,12,7.60
2015,03,25,06,13,7.60
2015,03,25,06,14,7.60
2015,03,25,06,15,7.60
2015,03,25,06,16,7.60
2015,03,25,06,17,7.60
2015,03,25,06,18,7.60
2015,03,25,06,19,7.60
2015,03,25,06,20,7.60
2015,03,25,06,21,7.60
2015,03,25,06,22,7.60
2015,03,25,06,23,7.70
2015,03,25,06,24,7.70
2015,03,25,06,25,7.70
2015,03,25,06,26,7.70
2015,03,25,06,27,7.70
2015,03,25,06,28,7.70
2015,03,25,06,29,7.70
2015,03,25,06,30,7.70
2015,03,25,06,31,7.70
2015,03,25,06,32,7.70
2015,03,25,06,33,7.70
2015,03,25,06,34,7.70
2015,03,25,06,35,7.70
2015,03,25,06,36,7.80
2015,03,25,06,37,7.80
2015,03,25,06,38,7.80
2015,03,25,06,39,7.80
2015,03,25,06,40,7.80
2015,03,25,06,41,7.80
2015,03,25,06,42,7.80
2015,03,25,06,43,7.80
2015,03,25,06,44,7.80
2015,03,25,06,45,7.80
2015,03,25,06,46,7.90
2015,03,25,06,47,7.90
2015,03,25,06,48,7.90
2015,03,25,06,49,7.90
2015,03,25,06,50,7.90
2015,03,25,06,51,7.90
2015,03,25,06,52,7.90
2015,03,25,06,53,7.90
2015,03,25,06,54,7.90
2015,03,25,06,55,7.90
2015,03,25,06,56,7.90
2015,03,25,06,57,7.90
2015,03,25,06,58,7.90
2015,03,25,06,59,7.90
2015,03,25,07,00,7.90
2015,03,25,07,01,7.90
2015,03,25,07,02,7.90
2015,03,25,07,03,7.90
2015,03,25,07,04,7.90
2015,03,25,07,05,7.90
2015,03,25,07,06,7.90
2015,03,25,07,07,7.90
2015,03,25,07,08,7.90
2015,03,25,07,09,7.90
2015,03,25,07,10,7.90
2015,03,25,07,11,7.90
2015,03,25,07,12,7.90
2015,03,25,07,13,7.90
2015,03,25,07,14,7.90
2015,03,25,07,15,7.90
2015,03,25,07,16,7.90
2015,03,25,07,17,7.90
2015,03,25,07,18,7.90
2015,03,25,07,19,7.90
2015,03,25,07,20,7.90
2015,03,25,07,21,8.00
2015,03,25,07,22,8.00
2015,03,25,07,23,8.00
2015,03,25,07,24,8.00
2015,03,25,07,25,8.00
2015,03,25,07,26,8.00
2015,03,25,07,27,8.00
2015,03,25,07,28,8.00
2015,03,25,07,29,8.10
2015,03,25,07,30,8.10
2015,03,25,07,31,8.10
2015,03,25,07,32,8.10
2015,03,25,07,33,8.10
2015,03,25,07,34,8.10
2015,03,25,07,35,8.10
2015,03,25,07,36,8.10
2015,03,25,07,37,8.10
2015,03,25,07,38,8.10
2015,03,25,07,39,8.10
2015,03,25,07,40,8.10
2015,03,25,07,41,8.10
2015,03,25,07,42,8.20
2015,03,25,07,43,8.20
2015,03,25,07,44,8.20
2015,03,25,07,45,8.20
2015,03,25,07,46,8.20
2015,03,25,07,47,8.20
2015,03,25,07,48,8.20
2015,03,25,07,49,8.20
2015,03,25,07,50,8.20
2015,03,25,07,51,8.20
2015,03,25,07,52,8.20
2015,03,25,07,53,8.20
2015,03,25,07,54,8.20
2015,03,25,07,55,8.30
2015,03,25,07,56,8.30
2015,03,25,07,57,8.30
2015,03,25,07,58,8.30
2015,03,25,07,59,8.30
2015,03,25,08,00,8.30
2015,03,25,08,01,8.30
2015,03,25,08,02,8.30
2015,03,25,08,03,8.30
2015,03,25,08,04,8.30
2015,03,25,08,05,8.30
2015,03,25,08,06,8.30
2015,03,25,08,07,8.30
2015,03,25,08,08,8.30
2015,03,25,08,09,8.30
2015,03,25,08,10,8.30
2015,03,25,08,11,8.30
2015,03,25,08,12,8.30
2015,03,25,08,13,8.30
2015,03,25,08,14,8.30
2015,03,25,08,15,8.40
2015,03,25,08,16,8.40
2015,03,25,08,17,8.40
2015,03,25,08,18,8.40
2015,03,25,08,19,8.40
2015,03,25,08,20,8.40
2015,03,25,08,21,8.40
2015,03,25,08,22,8.40
2015,03,25,08,23,8.40
2015,03,25,08,24,8.40
2015,03,25,08,25,8.40
2015,03,25,08,26,8.40
2015,03,25,08,27,8.40
2015,03,25,08,28,8.40
2015,03,25,08,29,8.40
2015,03,25,08,30,8.40
2015,03,25,08,31,8.40
2015,03,25,08,32,8.40
2015,03,25,08,33,8.40
2015,03,25,08,34,8.40
2015,03,25,08,35,8.40
2015,03,25,08,36,8.40
2015,03,25,08,37,8.40
2015,03,25,08,38,8.40
2015,03,25,08,39,8.50
2015,03,25,08,40,8.50
2015,03,25,08,41,8.50
2015,03,25,08,42,8.40
2015,03,25,08,43,8.50
2015,03,25,08,44,8.50
2015,03,25,08,45,8.50
2015,03,25,08,46,8.50
2015,03,25,08,47,8.50
2015,03,25,08,48,8.50
2015,03,25,08,49,8.50
2015,03,25,08,50,8.50
2015,03,25,08,51,8.50
2015,03,25,08,52,8.50
2015,03,25,08,53,8.50
2015,03,25,08,54,8.50
2015,03,25,08,55,8.50
2015,03,25,08,56,8.50
2015,03,25,08,57,8.50
2015,03,25,08,58,8.50
2015,03,25,08,59,8.50
2015,03,25,09,00,8.50
2015,03,25,09,01,8.60
2015,03,25,09,02,8.60
2015,03,25,09,03,8.60
2015,03,25,09,04,8.60
2015,03,25,09,05,8.60
2015,03,25,09,06,8.60
2015,03,25,09,07,8.60
2015,03,25,09,08,8.60
2015,03,25,09,09,8.60
2015,03,25,09,10,8.60
2015,03,25,09,11,8.60
2015,03,25,09,12,8.60
2015,03,25,09,13,8.60
2015,03,25,09,14,8.60
2015,03,25,09,15,8.60
2015,03,25,09,16,8.60
2015,03,25,09,17,8.60
2015,03,25,09,18,8.60
2015,03,25,09,19,8.60
2015,03,25,09,20,8.60
2015,03,25,09,21,8.60
2015,03,25,09,22,8.60
2015,03,25,09,23,8.60
2015,03,25,09,24,8.60
2015,03,25,09,25,8.60
2015,03,25,09,26,8.60
2015,03,25,09,27,8.60
2015,03,25,09,28,8.60
2015,03,25,09,29,8.70
2015,03,25,09,30,8.70
2015,03,25,09,31,8.70
2015,03,25,09,32,8.60
2015,03,25,09,33,8.70
2015,03,25,09,34,8.70
2015,03,25,09,35,8.70
2015,03,25,09,36,8.70
2015,03,25,09,37,8.70
2015,03,25,09,38,8.70
2015,03,25,09,39,8.70
2015,03,25,09,40,8.70
2015,03,25,09,41,8.70
2015,03,25,09,42,8.70
2015,03,25,09,43,8.70
2015,03,25,09,44,8.70
2015,03,25,09,45,8.70
2015,03,25,09,46,8.80
2015,03,25,09,47,8.80
2015,03,25,09,48,8.80
2015,03,25,09,49,8.80
2015,03,25,09,50,8.80
2015,03,25,09,51,8.80
2015,03,25,09,52,8.80
2015,03,25,09,53,8.80
2015,03,25,09,54,8.80
2015,03,25,09,55,8.80
2015,03,25,09,56,8.80
2015,03,25,09,57,8.80
2015,03,25,09,58,8.80
2015,03,25,09,59,8.80
2015,03,25,10,00,8.80
2015,03,25,10,01,8.80
2015,03,25,10,02,8.80
2015,03,25,10,03,8.80
2015,03,25,10,04,8.90
2015,03,25,10,05,8.90
2015,03,25,10,06,8.90
2015,03,25,10,07,8.90
2015,03,25,10,08,8.90
2015,03,25,10,09,8.90
2015,03,25,10,10,8.90
2015,03,25,10,11,8.90
2015,03,25,10,12,8.90
2015,03,25,10,13,8.90
2015,03,25,10,14,8.90
2015,03,25,10,15,8.90
2015,03,25,10,16,8.90
2015,03,25,10,17,9.00
2015,03,25,10,18,9.00
2015,03,25,10,19,9.00
2015,03,25,10,20,9.00
2015,03,25,10,21,9.00
2015,03,25,10,22,9.00
2015,03,25,10,23,9.00
2015,03,25,10,24,9.00
2015,03,25,10,25,9.00
2015,03,25,10,26,9.00
2015,03,25,10,27,9.00
2015,03,25,10,28,9.00
2015,03,25,10,29,9.00
2015,03,25,10,30,9.10
2015,03,25,10,31,9.10
2015,03,25,10,32,9.10
2015,03,25,10,33,9.10
2015,03,25,10,34,9.10
2015,03,25,10,35,9.10
2015,03,25,10,36,9.10
2015,03,25,10,37,9.10
2015,03,25,10,38,9.10
2015,03,25,10,39,9.10
2015,03,25,10,40,9.10
2015,03,25,10,41,9.10
2015,03,25,10,42,9.10
2015,03,25,10,43,9.10
2015,03,25,10,44,9.20
2015,03,25,10,45,9.20
2015,03,25,10,46,9.20
2015,03,25,10,47,9.20
2015,03,25,10,48,9.20
2015,03,25,10,49,9.20
2015,03,25,10,50,9.20
2015,03,25,10,51,9.20
2015,03,25,10,52,9.20
2015,03,25,10,53,9.20
2015,03,25,10,54,9.20
2015,03,25,10,55,9.20
2015,03,25,10,56,9.20
2015,03,25,10,57,9.20
2015,03,25,10,58,9.20
2015,03,25,10,59,9.20
2015,03,25,11,00,9.20
2015,03,25,11,01,9.20
2015,03,25,11,02,9.20
2015,03,25,11,03,9.20
2015,03,25,11,04,9.20
2015,03,25,11,05,9.20
2015,03,25,11,06,9.20
2015,03,25,11,07,9.20
2015,03,25,11,08,9.20
2015,03,25,11,09,9.20
2015,03,25,11,10,9.20
2015,03,25,11,11,9.30
2015,03,25,11,12,9.30
2015,03,25,11,13,9.30
2015,03,25,11,14,9.30
2015,03,25,11,15,9.30
2015,03,25,11,16,9.30
2015,03,25,11,17,9.30
2015,03,25,11,18,9.30
2015,03,25,11,19,9.30
2015,03,25,11,20,9.30
2015,03,25,11,21,9.40
2015,03,25,11,22,9.40
2015,03,25,11,23,9.40
2015,03,25,11,24,9.40
2015,03,25,11,25,9.40
2015,03,25,11,26,9.40
2015,03,25,11,27,9.40
2015,03,25,11,28,9.40
2015,03,25,11,29,9.40
2015,03,25,11,30,9.40
2015,03,25,11,31,9.50
2015,03,25,11,32,9.40
2015,03,25,11,33,9.40
2015,03,25,11,34,9.50
2015,03,25,11,35,9.50
2015,03,25,11,36,9.50
2015,03,25,11,37,9.50
2015,03,25,11,38,9.60
2015,03,25,11,39,9.60
2015,03,25,11,40,9.50
2015,03,25,11,41,9.60
2015,03,25,11,42,9.60
2015,03,25,11,43,9.60
2015,03,25,11,44,9.60
2015,03,25,11,45,9.60
2015,03,25,11,46,9.60
2015,03,25,11,47,9.60
2015,03,25,11,48,9.60
2015,03,25,11,49,9.60
2015,03,25,11,50,9.60
2015,03,25,11,51,9.60
2015,03,25,11,52,9.60
2015,03,25,11,53,9.70
2015,03,25,11,54,9.70
2015,03,25,11,55,9.70
2015,03,25,11,56,9.70
2015,03,25,11,57,9.70
2015,03,25,11,58,9.70
2015,03,25,11,59,9.70
2015,03,25,12,00,9.70
2015,03,25,12,01,9.70
2015,03,25,12,02,9.70
2015,03,25,12,03,9.70
2015,03,25,12,04,9.70
2015,03,25,12,05,9.70
2015,03,25,12,06,9.70
2015,03,25,12,07,9.70
2015,03,25,12,08,9.70
2015,03,25,12,09,9.70
2015,03,25,12,10,9.70
2015,03,25,12,11,9.70
2015,03,25,12,12,9.70
2015,03,25,12,13,9.70
2015,03,25,12,14,9.70
2015,03,25,12,15,9.70
2015,03,25,12,16,9.80
2015,03,25,12,17,9.80
2015,03,25,12,18,9.80
2015,03,25,12,19,9.80
2015,03,25,12,20,9.80
2015,03,25,12,21,9.80
2015,03,25,12,22,9.80
2015,03,25,12,23,9.80
2015,03,25,12,24,9.80
2015,03,25,12,25,9.80
2015,03,25,12,26,9.80
2015,03,25,12,27,9.90
2015,03,25,12,28,9.90
2015,03,25,12,29,9.90
2015,03,25,12,30,9.90
2015,03,25,12,31,9.90
2015,03,25,12,32,9.90
2015,03,25,12,33,9.90
2015,03,25,12,34,10.00
2015,03,25,12,35,10.00
2015,03,25,12,36,10.00
2015,03,25,12,37,10.00
2015,03,25,12,38,10.00
2015,03,25,12,39,10.00
2015,03,25,12,40,10.00
2015,03,25,12,41,10.10
2015,03,25,12,42,10.10
2015,03,25,12,43,10.10
2015,03,25,12,44,10.10
2015,03,25,12,45,10.10
2015,03,25,12,46,10.10
2015,03,25,12,47,10.10
2015,03,25,12,48,10.20
2015,03,25,12,49,10.20
2015,03,25,12,50,10.20
2015,03,25,12,51,10.20
2015,03,25,12,52,10.20
2015,03,25,12,53,10.20
2015,03,25,12,54,10.20
2015,03,25,12,55,10.20
2015,03,25,12,56,10.20
2015,03,25,12,57,10.30
2015,03,25,12,58,10.30
2015,03,25,12,59,10.30
2015,03,25,13,00,10.30
2015,03,25,13,01,10.30
2015,03,25,13,02,10.30
2015,03,25,13,03,10.30
2015,03,25,13,04,10.30
2015,03,25,13,05,10.30
2015,03,25,13,06,10.40
2015,03,25,13,07,10.40
2015,03,25,13,08,10.40
2015,03,25,13,09,10.40
2015,03,25,13,10,10.40
2015,03,25,13,11,10.40
2015,03,25,13,12,10.40
2015,03,25,13,13,10.40
2015,03,25,13,14,10.40
2015,03,25,13,15,10.40
2015,03,25,13,16,10.40
2015,03,25,13,17,10.50
2015,03,25,13,18,10.50
2015,03,25,13,19,10.50
2015,03,25,13,20,10.50
2015,03,25,13,21,10.50
2015,03,25,13,22,10.50
2015,03,25,13,23,10.50
2015,03,25,13,24,10.50
2015,03,25,13,25,10.50
2015,03,25,13,26,10.60
2015,03,25,13,27,10.60
2015,03,25,13,28,10.60
2015,03,25,13,29,10.60
2015,03,25,13,30,10.60
2015,03,25,13,31,10.60
2015,03,25,13,32,10.60
2015,03,25,13,33,10.60
2015,03,25,13,34,10.60
2015,03,25,13,35,10.60
2015,03,25,13,36,10.60
2015,03,25,13,37,10.60
2015,03,25,13,38,10.60
2015,03,25,13,39,10.70
2015,03,25,13,40,10.70
2015,03,25,13,41,10.70
2015,03,25,13,42,10.70
2015,03,25,13,43,10.70
2015,03,25,13,44,10.70
2015,03,25,13,45,10.70
2015,03,25,13,46,10.70
2015,03,25,13,47,10.70
2015,03,25,13,48,10.70
2015,03,25,13,49,10.70
2015,03,25,13,50,10.70
2015,03,25,13,51,10.70
2015,03,25,13,52,10.70
2015,03,25,13,53,10.70
2015,03,25,13,54,10.70
2015,03,25,13,55,10.70
2015,03,25,13,56,10.70
2015,03,25,13,57,10.70
2015,03,25,13,58,10.70
2015,03,25,13,59,10.70
2015,03,25,14,00,10.80
2015,03,25,14,01,10.80
2015,03,25,14,02,10.80
2015,03,25,14,03,10.80
2015,03,25,14,04,10.80
2015,03,25,14,05,10.80
2015,03,25,14,06,10.80
2015,03,25,14,07,10.80
2015,03,25,14,08,10.80
2015,03,25,14,09,10.80
2015,03,25,14,10,10.80
2015,03,25,14,11,10.90
2015,03,25,14,12,10.80
2015,03,25,14,13,10.90
2015,03,25,14,14,10.90
2015,03,25,14,15,10.90
2015,03,25,14,16,10.90
2015,03,25,14,17,10.90
2015,03,25,14,18,10.90
2015,03,25,14,19,10.90
2015,03,25,14,20,10.90
2015,03,25,14,21,10.90
2015,03,25,14,22,10.90
2015,03,25,14,23,10.90
2015,03,25,14,24,10.90
2015,03,25,14,25,10.90
2015,03,25,14,26,10.90
2015,03,25,14,27,10.90
2015,03,25,14,28,10.90
2015,03,25,14,29,11.00
2015,03,25,14,30,11.00
2015,03,25,14,31,11.00
2015,03,25,14,32,11.00
2015,03,25,14,33,11.10
2015,03,25,14,34,11.10
2015,03,25,14,35,11.10
2015,03,25,14,36,11.10
2015,03,25,14,37,11.10
2015,03,25,14,38,11.10
2015,03,25,14,39,11.10
2015,03,25,14,40,11.10
2015,03,25,14,41,11.10
2015,03,25,14,42,11.20
2015,03,25,14,43,11.20
2015,03,25,14,44,11.20
2015,03,25,14,45,11.20
2015,03,25,14,46,11.30
2015,03,25,14,47,11.30
2015,03,25,14,48,11.30
2015,03,25,14,49,11.30
2015,03,25,14,50,11.30
2015,03,25,14,51,11.30
2015,03,25,14,52,11.20
2015,03,25,14,53,11.20
2015,03,25,14,54,11.20
2015,03,25,14,55,11.30
2015,03,25,14,56,11.30
2015,03,25,14,57,11.30
2015,03,25,14,58,11.30
2015,03,25,14,59,11.30
2015,03,25,15,00,11.30
2015,03,25,15,01,11.30
2015,03,25,15,02,11.30
2015,03,25,15,03,11.40
2015,03,25,15,04,11.40
2015,03,25,15,05,11.30
2015,03,25,15,06,11.30
2015,03,25,15,07,11.30
2015,03,25,15,08,11.30
2015,03,25,15,09,11.30
2015,03,25,15,10,11.30
2015,03,25,15,11,11.30
2015,03,25,15,12,11.20
2015,03,25,15,13,11.20
2015,03,25,15,14,11.20
2015,03,25,15,15,11.20
2015,03,25,15,16,11.20
2015,03,25,15,17,11.20
2015,03,25,15,18,11.20
2015,03,25,15,19,11.20
2015,03,25,15,20,11.20
2015,03,25,15,21,11.30
2015,03,25,15,22,11.30
2015,03,25,15,23,11.30
2015,03,25,15,24,11.30
2015,03,25,15,25,11.30
2015,03,25,15,26,11.30
2015,03,25,15,27,11.30
2015,03,25,15,28,11.30
2015,03,25,15,29,11.30
2015,03,25,15,30,11.30
2015,03,25,15,31,11.40
2015,03,25,15,32,11.40
2015,03,25,15,33,11.40
2015,03,25,15,34,11.40
2015,03,25,15,35,11.40
2015,03,25,15,36,11.40
2015,03,25,15,37,11.30
2015,03,25,15,38,11.30
2015,03,25,15,39,11.20
2015,03,25,15,40,11.20
2015,03,25,15,41,11.20
2015,03,25,15,42,11.10
2015,03,25,15,43,11.10
2015,03,25,15,44,11.10
2015,03,25,15,45,11.10
2015,03,25,15,46,11.10
2015,03,25,15,47,11.00
2015,03,25,15,48,11.00
2015,03,25,15,49,11.00
2015,03,25,15,50,11.00
2015,03,25,15,51,11.00
2015,03,25,15,52,11.10
2015,03,25,15,53,11.10
2015,03,25,15,54,11.10
2015,03,25,15,55,11.10
2015,03,25,15,56,11.10
2015,03,25,15,57,11.00
2015,03,25,15,58,11.00
2015,03,25,15,59,11.00
2015,03,25,16,00,11.00
2015,03,25,16,01,11.00
2015,03,25,16,02,11.00
2015,03,25,16,03,11.00
2015,03,25,16,04,11.00
2015,03,25,16,05,11.00
2015,03,25,16,06,11.00
2015,03,25,16,07,11.00
2015,03,25,16,08,11.10
2015,03,25,16,09,11.10
2015,03,25,16,10,11.10
2015,03,25,16,11,11.20
2015,03,25,16,12,11.20
2015,03,25,16,13,11.20
2015,03,25,16,14,11.20
2015,03,25,16,15,11.30
2015,03,25,16,16,11.30
2015,03,25,16,17,11.40
2015,03,25,16,18,11.40
2015,03,25,16,19,11.50
2015,03,25,16,20,11.50
2015,03,25,16,21,11.60
2015,03,25,16,22,11.70
2015,03,25,16,23,11.80
2015,03,25,16,24,11.90
2015,03,25,16,25,12.00
2015,03,25,16,26,12.10
2015,03,25,16,27,12.20
2015,03,25,16,28,12.30
2015,03,25,16,29,12.30
2015,03,25,16,30,12.40
2015,03,25,16,31,12.40
2015,03,25,16,32,12.50
2015,03,25,16,33,12.50
2015,03,25,16,34,12.60
2015,03,25,16,35,12.60
2015,03,25,16,36,12.60
2015,03,25,16,37,12.60
2015,03,25,16,38,12.60
2015,03,25,16,39,12.60
2015,03,25,16,40,12.60
2015,03,25,16,41,12.50
2015,03,25,16,42,12.50
2015,03,25,16,43,12.50
2015,03,25,16,44,12.40
2015,03,25,16,45,12.40
2015,03,25,16,46,12.40
2015,03,25,16,47,12.40
2015,03,25,16,48,12.40
2015,03,25,16,49,12.40
2015,03,25,16,50,12.40
2015,03,25,16,51,12.40
2015,03,25,16,52,12.40
2015,03,25,16,53,12.40
2015,03,25,16,54,12.40
2015,03,25,16,55,12.40
2015,03,25,16,56,12.40
2015,03,25,16,57,12.40
2015,03,25,16,58,12.40
2015,03,25,16,59,12.40
2015,03,25,17,00,12.40
2015,03,25,17,01,12.40
2015,03,25,17,02,12.40
2015,03,25,17,03,12.30
2015,03,25,17,04,12.30
2015,03,25,17,05,12.20
2015,03,25,17,06,12.10
2015,03,25,17,07,12.10
2015,03,25,17,08,12.00
2015,03,25,17,09,12.00
2015,03,25,17,10,11.90
2015,03,25,17,11,11.90
2015,03,25,17,12,11.90
2015,03,25,17,13,11.90
2015,03,25,17,14,11.80
2015,03,25,17,15,11.80
2015,03,25,17,16,11.70
2015,03,25,17,17,11.70
2015,03,25,17,18,11.70
2015,03,25,17,19,11.80
2015,03,25,17,20,11.80
2015,03,25,17,21,11.80
2015,03,25,17,22,11.80
2015,03,25,17,23,11.90
2015,03,25,17,24,11.90
2015,03,25,17,25,12.00
2015,03,25,17,26,12.00
2015,03,25,17,27,12.10
2015,03,25,17,28,12.20
2015,03,25,17,29,12.30
2015,03,25,17,30,12.30
2015,03,25,17,31,12.30
2015,03,25,17,32,12.40
2015,03,25,17,33,12.40
2015,03,25,17,34,12.50
2015,03,25,17,35,12.50
2015,03,25,17,36,12.60
2015,03,25,17,37,12.60
2015,03,25,17,38,12.60
2015,03,25,17,39,12.60
2015,03,25,17,40,12.70
2015,03,25,17,41,12.70
2015,03,25,17,42,12.70
2015,03,25,17,43,12.70
2015,03,25,17,44,12.60
2015,03,25,17,45,12.60
2015,03,25,17,46,12.50
2015,03,25,17,47,12.50
2015,03,25,17,48,12.40
2015,03,25,17,49,12.40
2015,03,25,17,50,12.30
2015,03,25,17,51,12.20
2015,03,25,17,52,12.20